Weather History for PADU - March, 2014

Change the Weather History Date:

Thursday, March 20, 2014

  Actual Average Record
Temperature  
Mean Temperature 36 °F -  
Max Temperature 37 °F 39 °F 44 °F (1987)
Min Temperature 35 °F 27 °F 15 °F (1989)
Degree Days  
Heating Degree Days 29    
Moisture  
Dew Point 34 °F    
Average Humidity 88    
Maximum Humidity 93    
Minimum Humidity 81    
Precipitation  
Precipitation 0.06 in - - ()
Sea Level Pressure  
Sea Level Pressure 29.87 in    
Wind  
Wind Speed 13 mph (East)    
Max Wind Speed 24 mph    
Max Gust Speed 34 mph    
Visibility 8 miles    
Events Rain    
Averages and records for this station are not official NWS values.
T = Trace of Precipitation, MM = Missing Value Source: NWS Daily Summary

Daily Weather History Graph

Daily Weather History Graph

Search for Another Location

Airport or City:

Trip Planner

Search our weather history database for the weather conditions in past years. The results will help you decide how hot, cold, wet, or windy it might be!

Date:

Astronomy

Mar. 20, 2014 Rise Set
Actual Time 9:07 AM AKDT 9:20 PM AKDT
Civil Twilight 8:32 AM AKDT 9:55 PM AKDT
Nautical Twilight 7:51 AM AKDT 10:37 PM AKDT
Astronomical Twilight 7:07 AM AKDT 11:21 PM AKDT
Moon 1:23 AM AKDT (3/20) 10:47 AM AKDT (3/20)
Length of Visible Light 13h 22m
Length of Day
12h 12m
Waning Gibbous, 83% of the Moon is Illuminated
Mar 20
Waning Gibbous
Mar 23
Last Quarter
Mar 30
New
Apr 7
First Quarter
Apr 14
Full

Hourly Weather History & Observations

Time (AKDT) Temp. Windchill Dew Point Humidity Pressure Visibility Wind Dir Wind Speed Gust Speed Precip Events Conditions
12:00 AM 37.4 °F 26.9 °F 35.6 °F 93% 29.81 in 4.0 mi East 20.7 mph 28.8 mph 0.00 in Rain Light Rain
12:07 AM 37.4 °F 26.9 °F 35.6 °F 93% 29.81 in 3.0 mi East 20.7 mph 29.9 mph 0.00 in Rain Light Rain
12:30 AM 37.4 °F 27.2 °F 35.6 °F 93% 29.82 in 6.0 mi East 19.6 mph 32.2 mph 0.01 in Rain Light Rain
12:56 AM 37.9 °F 27.3 °F 35.1 °F 89% 29.83 in 5.0 mi East 21.9 mph 28.8 mph 0.02 in Rain Light Rain
1:56 AM 37.9 °F 28.5 °F 34.0 °F 86% 29.83 in 9.0 mi East 17.3 mph 29.9 mph 0.01 in Rain Light Rain
2:11 AM 37.4 °F 27.5 °F 33.8 °F 87% 29.82 in 8.0 mi East 18.4 mph 26.5 mph 0.01 in Rain Light Rain
2:56 AM 37.9 °F 28.5 °F 34.0 °F 86% 29.83 in 10.0 mi East 17.3 mph 27.6 mph 0.01 in Rain Light Rain
3:23 AM 37.4 °F 26.6 °F 33.8 °F 87% 29.81 in 8.0 mi East 21.9 mph 28.8 mph 0.00 in Rain Light Rain
3:34 AM 37.4 °F 26.1 °F 33.8 °F 87% 29.82 in 3.0 mi East 24.2 mph 34.5 mph 0.00 in Rain Light Rain
3:56 AM 37.0 °F 27.7 °F 34.0 °F 89% 29.85 in 4.0 mi East 16.1 mph 24.2 mph 0.00 in   Overcast
4:29 AM 37.4 °F 27.5 °F 33.8 °F 87% 29.83 in 10.0 mi East 18.4 mph 26.5 mph 0.00 in   Overcast
4:56 AM 37.0 °F 25.9 °F 34.0 °F 89% 29.84 in 9.0 mi East 23.0 mph 32.2 mph 0.00 in   Overcast
5:30 AM 37.4 °F 28.2 °F 33.8 °F 87% 29.83 in 9.0 mi East 16.1 mph 27.6 mph 0.00 in Rain Light Rain
5:56 AM 37.0 °F 27.7 °F 33.1 °F 86% 29.84 in 7.0 mi East 16.1 mph - 0.00 in   Overcast
6:12 AM 37.4 °F 29.3 °F 33.8 °F 87% 29.83 in 7.0 mi East 12.7 mph - N/A   Overcast
6:56 AM 37.0 °F 31.0 °F 33.1 °F 86% 29.86 in 9.0 mi East 8.1 mph - N/A   Overcast
7:17 AM 35.6 °F 28.0 °F 33.8 °F 93% 29.84 in 6.0 mi ENE 10.4 mph - 0.00 in Rain Light Rain
7:56 AM 36.0 °F 27.1 °F 32.0 °F 86% 29.86 in 6.0 mi East 13.8 mph - 0.00 in Rain Light Rain
8:17 AM 35.6 °F 26.6 °F 32.0 °F 87% 29.85 in 6.0 mi East 13.8 mph - 0.00 in Rain Light Rain
8:56 AM 36.0 °F 33.3 °F 32.0 °F 86% 29.87 in 10.0 mi Variable 3.5 mph - 0.00 in Rain Light Rain
8:59 AM 35.6 °F 30.7 °F 32.0 °F 87% 29.85 in 10.0 mi Variable 5.8 mph - 0.00 in Rain Light Rain
9:21 AM 35.6 °F 32.8 °F 32.0 °F 87% 29.85 in 8.0 mi SE 3.5 mph - 0.00 in Rain Light Rain
9:56 AM 36.0 °F - 32.0 °F 86% 29.88 in 8.0 mi Calm Calm - 0.01 in Rain Light Rain
10:11 AM 35.6 °F - 32.0 °F 87% 29.86 in 8.0 mi Calm Calm - 0.00 in Rain Light Rain
10:56 AM 36.0 °F 32.1 °F 33.1 °F 89% 29.89 in 10.0 mi NNW 4.6 mph - 0.00 in Rain Light Rain
11:25 AM 35.6 °F 32.8 °F 33.8 °F 93% 29.88 in 10.0 mi NW 3.5 mph - 0.00 in   Overcast
11:56 AM 36.0 °F - 33.1 °F 89% 29.90 in 10.0 mi Calm Calm - 0.00 in   Overcast
12:06 PM 37.4 °F 34.9 °F 32.0 °F 81% 29.88 in 10.0 mi SE 3.5 mph - N/A   Overcast
12:32 PM 37.4 °F - 33.8 °F 87% 29.89 in 10.0 mi Calm Calm - N/A   Overcast
12:56 PM 37.0 °F 34.5 °F 33.1 °F 86% 29.91 in 10.0 mi West 3.5 mph - N/A   Overcast
12:58 PM 37.4 °F - 33.8 °F 87% 29.89 in 10.0 mi Calm Calm - N/A   Overcast
1:56 PM 37.0 °F 30.4 °F 34.0 °F 89% 29.91 in 10.0 mi East 9.2 mph - 0.00 in   Overcast
2:56 PM 37.9 °F 32.1 °F 34.0 °F 86% 29.91 in 10.0 mi East 8.1 mph - N/A   Overcast
3:56 PM 37.0 °F 29.3 °F 34.0 °F 89% 29.91 in 7.0 mi East 11.5 mph - N/A   Overcast
4:16 PM 37.4 °F 29.8 °F 33.8 °F 87% 29.89 in 10.0 mi East 11.5 mph - 0.00 in Rain Light Rain
4:56 PM 37.0 °F 33.3 °F 34.0 °F 89% 29.91 in 10.0 mi East 4.6 mph - 0.00 in   Overcast
5:56 PM 37.9 °F 32.1 °F 33.1 °F 83% 29.91 in 10.0 mi SE 8.1 mph - 0.00 in   Overcast
6:43 PM 37.4 °F 30.3 °F 33.8 °F 87% 29.89 in 8.0 mi ENE 10.4 mph - 0.00 in Rain Light Rain
6:56 PM 37.0 °F 29.8 °F 34.0 °F 89% 29.90 in 8.0 mi East 10.4 mph - 0.00 in   Overcast
7:56 PM 37.0 °F 28.9 °F 34.0 °F 89% 29.89 in 6.0 mi ENE 12.7 mph - 0.00 in Rain Light Rain
8:27 PM 37.4 °F 29.8 °F 33.8 °F 87% 29.87 in 4.0 mi ENE 11.5 mph - 0.00 in   Overcast
8:37 PM 37.4 °F 32.8 °F 33.8 °F 87% 29.87 in 5.0 mi East 5.8 mph - 0.00 in   Overcast
8:54 PM 37.4 °F - 33.8 °F 87% 29.88 in 8.0 mi Calm Calm - 0.00 in   Overcast
8:56 PM 37.0 °F 34.5 °F 34.0 °F 89% 29.90 in 8.0 mi ESE 3.5 mph - 0.00 in   Overcast
9:12 PM 37.4 °F 32.8 °F 33.8 °F 87% 29.88 in 4.0 mi SE 5.8 mph - 0.00 in   Overcast
9:20 PM 37.4 °F 32.8 °F 33.8 °F 87% 29.88 in 5.0 mi Variable 5.8 mph - 0.00 in   Overcast
9:46 PM 37.4 °F - 33.8 °F 87% 29.89 in 4.0 mi Calm Calm - 0.01 in   Overcast
9:52 PM 37.4 °F 34.9 °F 33.8 °F 87% 29.89 in 5.0 mi East 3.5 mph - 0.01 in   Overcast
9:56 PM 37.0 °F 34.5 °F 34.0 °F 89% 29.91 in 5.0 mi Variable 3.5 mph - 0.01 in   Overcast
10:56 PM 37.9 °F 32.7 °F 34.0 °F 86% 29.91 in 10.0 mi ESE 6.9 mph - 0.00 in   Overcast
11:56 PM 37.9 °F 33.5 °F 34.0 °F 86% 29.91 in 10.0 mi Variable 5.8 mph - 0.00 in Rain Light Rain